Overview Statistics Trail Chart Weather Telemetry Raw packets
 

This is the latest recevied weather packets stored in our database for station/object EA2RCU-15. If no packets are shown the sender has not sent any weather packets the latest 10 day(s).

<< 104 105 106 107 108 109 110 >>
Time Temp. Humidity Pressure Rain* Wind** Luminosity Snow
1787838904 29.44° C 14% 993 hPa 0 mm - - -
1787838604 28.89° C 13% 993 hPa 0 mm - - -
1787838304 28.89° C 15% 993 hPa 0 mm - - -
1787838004 29.44° C 13% 993 hPa 0 mm - - -
1787837704 29.44° C 16% 993 hPa 0 mm - - -
1787837404 28.89° C 16% 993 hPa 0 mm - - -
1787837104 28.89° C 16% 993 hPa 0 mm - - -
1787836805 28.89° C 16% 993 hPa 0 mm - - -
1787836503 28.89° C 19% 993 hPa 0 mm - - -
1787836209 28.89° C 19% 993 hPa 0 mm - - -
1787835904 29.44° C 19% 993 hPa 0 mm - - -
1787835604 30° C 18% 993 hPa 0 mm - - -
1787835304 30° C 18% 993 hPa 0 mm - - -
1787835005 30° C 19% 993 hPa 0 mm - - -
1787834704 29.44° C 19% 993 hPa 0 mm - - -
1787834404 30° C 19% 993 hPa 0 mm - - -
1787834104 30° C 19% 993 hPa 0 mm - - -
1787833804 29.44° C 19% 993 hPa 0 mm - - -
1787833504 28.89° C 20% 993 hPa 0 mm - - -
1787833204 28.89° C 20% 993 hPa 0 mm - - -
1787832904 28.89° C 21% 993 hPa 0 mm - - -
1787832604 28.33° C 22% 993 hPa 0 mm - - -
1787832304 27.78° C 22% 993 hPa 0 mm - - -
1787832004 27.78° C 24% 993 hPa 0 mm - - -
1787831704 27.22° C 24% 993 hPa 0 mm - - -

* Rain latest hour (hover to see other rain measurements)
** Current wind speed in m/s (hover to see current wind gust speed)